FW8932 Weather Reports


Display with metric or nautical units.
time (UTC)temp
F
wind
direction
speed
MPH
gust
MPH
rain 1hr
in
rain 24hr
in
rain mn
in
humidity
%
barometer
mb
20260504021706 53 231 3.0 5.0 0.00 0.00 0.00 55 978.8
20260504021206 53 242 2.0 3.0 0.00 0.00 0.00 56 978.8
20260504020706 53 243 3.0 5.0 0.00 0.00 0.00 55 978.9
20260504020206 53 224 2.0 5.0 0.00 0.00 0.00 56 978.9
20260504014706 53 229 2.0 5.0 0.00 0.00 0.00 56 978.7
20260504014206 53 230 3.0 7.0 0.00 0.00 0.00 54 978.7
20260504013706 53 227 5.0 9.0 0.00 0.00 0.00 58 978.6
20260504013206 53 166 1.0 3.0 0.00 0.00 0.00 53 978.3
20260504011706 53 252 1.0 3.0 0.00 0.00 0.00 50 978.3
20260504011206 54 5 1.0 3.0 0.00 0.00 0.00 51 978.3
20260504010706 54 301 1.0 3.0 0.00 0.00 0.00 50 978.3
20260504010206 54 347 1.0 3.0 0.00 0.00 0.00 50 978.3
20260504004705 54 8 1.0 2.0 0.00 0.00 0.00 50 978.3
20260504004206 54 318 1.0 2.0 0.00 0.00 0.00 50 978.3
20260504003706 54 326 0.0 3.0 0.00 0.00 0.00 50 978.2
20260504003206 54 357 1.0 3.0 0.00 0.00 0.00 49 978.2
20260504001706 55 9 1.0 3.0 0.00 0.00 0.00 49 978.2
20260504001206 55 264 0.0 1.0 0.00 0.00 0.00 51 978.2
20260504000706 55 241 1.0 2.0 0.00 0.00 0.00 50 978.2
20260504000206 55 35 1.0 2.0 0.00 0.00 0.00 50 978.2
20260503234706 56 195 1.0 2.0 0.00 0.00 0.00 51 978.4
20260503233706 56 210 2.0 6.0 0.00 0.00 0.00 48 978.4
20260503233206 56 155 2.0 3.0 0.00 0.00 0.00 48 978.5
20260503231206 57 153 4.0 7.0 0.00 0.00 0.00 46 978.6
20260503230206 57 148 2.0 8.0 0.00 0.00 0.00 48 978.6
20260503224706 57 196 4.0 7.0 0.00 0.00 0.00 45 978.6
20260503223705 57 208 3.0 7.0 0.00 0.00 0.00 46 978.7
20260503223206 57 236 3.0 7.0 0.00 0.00 0.00 46 978.8
20260503221220 58 234 2.0 2.0 0.00 0.00 0.00 46 978.8
20260503220722 58 234 2.0 2.0 0.00 0.00 0.00 46 978.8
20260503220221 58 234 2.0 2.0 0.00 0.00 0.00 46 978.8
20260503214721 58 234 2.0 2.0 0.00 0.00 0.00 46 978.8
20260503214220 58 234 2.0 2.0 0.00 0.00 0.00 47 978.8
20260503213721 58 234 2.0 2.0 0.00 0.00 0.00 47 978.8
20260503213223 58 234 2.0 2.0 0.00 0.00 0.00 47 978.9
20260503050705 37 234 2.0 2.0 0.00 0.02 0.00 95 983.0
20260503050206 37 234 2.0 2.0 0.00 0.02 0.00 95 983.0
20260503044705 37 234 2.0 2.0 0.00 0.02 0.00 95 983.0
20260503044205 37 234 2.0 2.0 0.00 0.02 0.00 95 983.0
20260503043705 37 234 2.0 2.0 0.00 0.02 0.00 94 983.0
20260503043205 37 234 2.0 2.0 0.00 0.02 0.00 94 983.0
20260503041705 37 234 2.0 2.0 0.00 0.02 0.00 94 983.0
20260503041205 37 234 2.0 2.0 0.00 0.02 0.00 93 983.1
20260503040205 37 234 2.0 2.0 0.00 0.02 0.00 93 983.0
20260503033706 38 234 2.0 2.0 0.00 0.02 0.01 92 983.1
20260503033205 38 234 2.0 2.0 0.00 0.02 0.01 91 983.1
20260503031205 38 234 2.0 2.0 0.00 0.02 0.01 89 983.2
20260503024205 39 234 2.0 2.0 0.00 0.02 0.01 87 983.2
20260503023705 39 234 2.0 2.0 0.00 0.02 0.01 86 983.3